Location: Cahas Mountain Overlook
(37.0833°N, 80.1000°W)
Time: 19:19:27
(UTC-04:00)

SR - Pass Details

Date: 09 February 2026
Orbit: 572 x 849 km, 66.7° (Epoch: 12 March)

Event Time Altitude Azimuth Distance (km) Brightness Sun altitude
Rises 05:53:30 0° 181° (S) 2,765 ? -16.8°
Reaches altitude 10° 05:55:55 10° 170° (S) 1,865 ? -16.4°
Maximum altitude 05:59:30 28° 110° (ESE) 1,079 ? -15.6°
Drops below altitude 10° 06:03:08 10° 51° (NE) 1,903 ? -14.9°
Sets 06:05:38 0° 40° (NE) 2,834 ? -14.4°
